Ohio State University, OH

5:04 PM EDT on April 25, 2018 (GMT -0400)
Ohio State University

Weather History for KOSU - May, 2013

Change the Weather History Date:

Saturday, May 11, 2013

  Actual Average Record
Temperature  
Mean Temperature 54 °F -  
Max Temperature 61 °F 69 °F 88 °F (2015)
Min Temperature 45 °F 48 °F 37 °F (1997)
Degree Days  
Heating Degree Days 11    
Growing Degree Days 4 (Base 50)    
Moisture  
Dew Point 50 °F    
Average Humidity 86    
Maximum Humidity 100    
Minimum Humidity 67    
Precipitation  
Precipitation 0.00 in - - ()
Sea Level Pressure  
Sea Level Pressure 29.86 in    
Wind  
Wind Speed 8 mph (WNW)    
Max Wind Speed 17 mph    
Max Gust Speed 26 mph    
Visibility 8 miles    
Events Rain    
Averages and records for this station are not official NWS values.
T = Trace of Precipitation, MM = Missing Value Source: NWS Daily Summary

Daily Weather History Graph

Daily Weather History Graph

Search for Another Location

Airport or City:

Astronomy

May. 11, 2013 Rise Set
Actual Time 6:20 AM EDT 8:37 PM EDT
Civil Twilight 5:50 AM EDT 9:07 PM EDT
Nautical Twilight 5:12 AM EDT 9:45 PM EDT
Astronomical Twilight 4:31 AM EDT 10:26 PM EDT
Moon 7:27 AM EDT (5/11) 10:16 PM EDT (5/11)
Length of Visible Light 15h 17m
Length of Day
14h 16m
Waxing Crescent, 3% of the Moon is Illuminated
May 11
Waxing Crescent
May 18
First Quarter
May 25
Full
May 31
Last Quarter
Jun 8
New

Hourly Weather History & Observations

Time (EDT) Temp. Windchill Dew Point Humidity Pressure Visibility Wind Dir Wind Speed Gust Speed Precip Events Conditions
12:07 AM 62.6 °F - 60.8 °F 94% 29.83 in 7.0 mi WSW 8.1 mph - N/A   Overcast
12:23 AM 62.6 °F - 60.8 °F 94% 29.83 in 6.0 mi WSW 6.9 mph - N/A   Overcast
12:37 AM 62.6 °F - 60.8 °F 94% 29.83 in 6.0 mi West 6.9 mph - N/A   Overcast
12:53 AM 62.1 °F - 60.1 °F 93% 29.82 in 8.0 mi WNW 9.2 mph - N/A   Overcast
1:49 AM 59.0 °F - 55.4 °F 88% 29.84 in 8.0 mi NW 11.5 mph - N/A   Overcast
1:53 AM 59.0 °F - 55.0 °F 87% 29.83 in 8.0 mi NW 12.7 mph - N/A   Overcast
2:13 AM 57.2 °F - 53.6 °F 88% 29.84 in 8.0 mi NW 10.4 mph - N/A   Overcast
2:45 AM 55.4 °F - 53.6 °F 94% 29.84 in 6.0 mi North 6.9 mph - N/A   Overcast
2:53 AM 55.9 °F - 53.1 °F 90% 29.84 in 6.0 mi North 8.1 mph - N/A   Overcast
3:17 AM 55.4 °F - 53.6 °F 94% 29.84 in 5.0 mi North 4.6 mph - N/A   Overcast
3:24 AM 55.4 °F - 53.6 °F 94% 29.84 in 5.0 mi NNW 3.5 mph - N/A   Overcast
3:50 AM 55.4 °F - 53.6 °F 94% 29.84 in 5.0 mi NNW 5.8 mph - N/A   Overcast
3:53 AM 55.0 °F - 53.1 °F 93% 29.83 in 5.0 mi NNW 6.9 mph - N/A   Overcast
4:00 AM 55.4 °F - 53.6 °F 94% 29.83 in 5.0 mi NNW 5.8 mph - N/A   Overcast
4:11 AM 53.6 °F - 53.6 °F 100% 29.84 in 5.0 mi NNW 8.1 mph - N/A   Overcast
4:53 AM 53.1 °F - 51.1 °F 93% 29.84 in 10.0 mi NW 9.2 mph - N/A   Overcast
5:04 AM 51.8 °F - 51.8 °F 100% 29.85 in 7.0 mi NNW 9.2 mph - N/A   Overcast
5:53 AM 51.1 °F - 50.0 °F 96% 29.86 in 4.0 mi NNW 5.8 mph - N/A   Overcast
6:53 AM 50.0 °F - 48.0 °F 93% 29.87 in 9.0 mi NNW 9.2 mph - N/A   Overcast
7:53 AM 48.9 °F - 46.9 °F 93% 29.87 in 3.0 mi NNW 8.1 mph - N/A   Overcast
8:53 AM 48.0 °F - 46.9 °F 96% 29.88 in 5.0 mi North 4.6 mph - N/A   Overcast
9:53 AM 48.0 °F - 46.9 °F 96% 29.88 in 5.0 mi North 6.9 mph - N/A   Overcast
10:37 AM 50.0 °F - 46.4 °F 87% 29.89 in 10.0 mi West 4.6 mph - N/A   Overcast
10:53 AM 50.0 °F - 46.0 °F 86% 29.89 in 10.0 mi WNW 6.9 mph - N/A   Overcast
11:53 AM 52.0 °F - 46.9 °F 83% 29.88 in 10.0 mi WSW 10.4 mph - N/A   Overcast
12:20 PM 51.8 °F - 46.4 °F 82% 29.88 in 10.0 mi West 10.4 mph - N/A   Overcast
12:53 PM 53.1 °F - 46.0 °F 77% 29.88 in 10.0 mi West 8.1 mph - N/A   Overcast
1:53 PM 53.1 °F - 46.9 °F 80% 29.88 in 10.0 mi West 10.4 mph - N/A   Overcast
2:53 PM 53.1 °F - 48.0 °F 83% 29.88 in 10.0 mi West 10.4 mph - N/A   Overcast
3:53 PM 54.0 °F - 48.0 °F 80% 29.88 in 10.0 mi West 6.9 mph - N/A   Overcast
4:53 PM 55.9 °F - 48.0 °F 75% 29.86 in 10.0 mi West 9.2 mph - N/A   Overcast
5:53 PM 55.9 °F - 48.0 °F 75% 29.87 in 10.0 mi West 10.4 mph 18.4 mph N/A   Overcast
6:10 PM 57.2 °F - 48.2 °F 72% 29.87 in 10.0 mi West 11.5 mph - N/A   Overcast
6:53 PM 57.0 °F - 48.0 °F 72% 29.86 in 10.0 mi SW 8.1 mph - N/A   Mostly Cloudy
7:05 PM 57.2 °F - 46.4 °F 67% 29.86 in 10.0 mi WSW 11.5 mph - N/A   Mostly Cloudy
7:18 PM 55.4 °F - 46.4 °F 72% 29.86 in 10.0 mi WSW 12.7 mph - N/A   Mostly Cloudy
7:53 PM 55.9 °F - 46.9 °F 72% 29.86 in 10.0 mi SW 8.1 mph - N/A   Overcast
8:53 PM 53.1 °F - 46.9 °F 80% 29.86 in 10.0 mi SSW 9.2 mph - N/A   Partly Cloudy
9:31 PM 48.2 °F - 44.6 °F 87% 29.91 in 10.0 mi NW 17.3 mph 26.5 mph 0.00 in Rain Light Rain
9:53 PM 46.0 °F 39.9 °F 39.0 °F 76% 29.93 in 10.0 mi NW 13.8 mph 24.2 mph 0.00 in Rain Light Rain
10:53 PM 46.0 °F 39.9 °F 37.0 °F 71% 29.96 in 10.0 mi NNW 13.8 mph - 0.00 in   Overcast
11:53 PM 45.0 °F 40.1 °F 37.9 °F 76% 29.97 in 10.0 mi NW 9.2 mph - N/A   Overcast